Location: Bern�tre
(50.1974°N, 2.0915°E)
Time: 01:57:28
(UTC+00:00)

COSMOS 2406 - Pass Details

Date: 18 September 2020
Orbit: 844 x 863 km, 71.0° (Epoch: 24 October)

Event Time Altitude Azimuth Distance (km) Brightness Sun altitude
Rises 20:46:00 0° 331° (NNW) 3,416 7.4 -25.7°
Reaches altitude 10° 20:48:28 10° 332° (NNW) 2,476 6.5 -26.1°
Maximum altitude 20:54:10 79° 60° (ENE) 866 3.1 -26.8°
Enters shadow 20:54:21 78° 87° (E) 869 3.0 -26.8°
